La Bouquetin 4/02/2012 10,6 Km
Place Nom Prenom Temps Km/h Place. Cat. Cat.
1 NYSSEN SEBASTIEN 572 0:51:02 12,5 1 V1
2 DEGEY JEAN PHILIPPE 561 0:51:02 12,5 1 S
3 RAMILLON NICOLAS 530 0:52:07 12,2 2 S
4 CRUTZEN FRANCOIS 549 0:52:40 12,1 3 S
5 GUILLAUME CEDRIC 555 0:53:28 11,9 4 S
6 VAN BENEDEN XAVIER 528 0:53:32 11,9 2 V1
7 DHONT FREDERIC 548 0:53:44 11,8 5 S
8 DARTOIS FABRICE 526 0:54:45 11,6 3 V1
9 CHERRAOUI MAJID 579 0:58:05 10,9 6 S
10 VAN KERKHOVEN MARTIN 562 1:00:33 10,5 7 S
11 DEWEZ ERWAN 547 1:00:47 10,5 1 EG
12 LEKEU GILBERT 558 1:00:50 10,5 1 V2
13 GILSON FELICIEN 559 1:00:53 10,4 2 V2
14 STALS CHRISTOPHE 537 1:00:58 10,4 8 S
15 CHATELAIN JULIEN 580 1:01:03 10,4 9 S
16 DELSEMME DAVID 574 1:10:20 9,0 10 S
17 LEGROS VINCENT 552 1:10:23 9,0 4 V1
18 NYSSEN SYLVIE 560 1:10:33 9,0 1 A1
19 GEURTS CHRISTIAN 543 1:11:07 8,9 5 V1
20 DEJOSE THIERRY 584 1:11:17 8,9 6 V1
21 MESTREZ ERIC 585 1:11:35 8,9 11 S
22 WEBER GERTY 539 1:11:37 8,9 1 A3
23 DENIS CHANTAL 532 1:11:57 8,8 2 A1
24 TROISFONTAINE PATRICK 531 1:13:19 8,7 3 V2
25 ROOMANS BENOIT 513 1:13:36 8,6 12 S
26 MARECHAL DAVID 554 1:13:38 8,6 13 S
27 SAUVAGE RENÉ 512 1:13:51 8,6 4 V2
28 SCHOMUS PHILIPPE 529 1:13:53 8,6 14 S
29 FUDVOYE JULIE 534 1:15:31 8,4 1 D
30 COMPAIN KEVIN 565 1:15:58 8,4 15 S
31 THOMAS ROGER 533 1:18:43 8,1 1 V3
32 CRANSVELD CAROLINE 502 1:18:49 8,1 3 A1
33 BILOCQ X 544 1:21:21 7,8 4 A1
34 ERPICUM ALICE 587 1:21:28 7,8 2 D
35 OFFREDI FREDERIC 569 1:21:38 7,8 7 V1
36 KAIRIS CECILE 557 1:22:52 7,7 5 A1
37 SQUELIN MICHELLE 588 1:23:18 7,6 6 A1
38 WOSKA NICOLAS 540 1:23:35 7,6 16 S
39 LECARTE FREDERIC 542 1:23:36 7,6 8 V1
40 BRANDT DIDIER 519 1:24:10 7,6 17 S
41 BRANDT ARNAUD 518 1:24:10 7,6 18 S
42 GODEFROID DANIEL 505 1:24:14 7,5 9 V1
43 LOUVIAUX CINDY 509 1:24:18 7,5 3 D
44 VIERSET DONATIENNE 551 1:24:19 7,5 7 A1
45 SCHILS PAULINE 522 1:24:31 7,5 8 A1
46 SZUCS STEPHANE 538 1:24:46 7,5 5 V2
47 FLAGOTHIER LISETTE 30 1:25:02 7,5 9 A1
48 JACOBS JOCELYNE 508 1:25:38 7,4 10 A1
49 PERILLEUX ISABELLE 556 1:25:47 7,4 11 A1
50 COUQUELET LAURENCE 527 1:25:48 7,4 12 A1
51 DINON SEBASTIEN 553 1:27:18 7,3 19 S
52 BAIR VALÉRIE 501 1:27:24 7,3 13 A1
53 LEROY LAURENCE 571 1:27:27 7,3 14 A1
54 GILET MARIE-FRANCE 523 1:27:40 7,3 1 A2
55 LECHANTEUR MYRIAM 577 1:27:52 7,2 2 A3
56 STROEDER VALERY 564 1:28:57 7,1 20 S
57 MIRGUET DENIS 545 1:28:59 7,1 6 V2
58 GOHY SEVERINE 507 1:29:21 7,1 4 D
59 BOURDEAUD'HUI MARIE-CECILE 546 1:29:50 7,1 2 A2
60 NINANE PHILIPPE 575 1:32:51 6,8 10 V1
61 BAERT ERIC 566 1:32:52 6,8 11 V1
62 STREIGNARD ISABELLE 573 1:33:33 6,8 5 D
63 SCHOFFENIELS FRANCOISE 582 1:36:30 6,6 3 A2
64 PARTHOENS MARCEL 581 1:40:42 6,3 2 EG
65 PARTHOENS THOMAS 583 1:40:44 6,3 21 S
66 DOTHEE ALEXANDRA 504 1:41:10 6,3 1 EF
67 DOTHEE MARC 503 1:41:11 6,3 12 V1